• In Russia
  • List of Countries
  • For 7 days
  • Water Temperature
  • Satellite Maps
  • Weather Map
  • Weather Widgets
  • user-avatar
    Login

    Hourly Weather Golinka

    Today, 17 August, Friday

    Time Temperature Precipitation Wind Pressure Humidity
    00:00 +20°C° 0 mm 2 mps 754 mmHg 63%
    01:00 +19°C° 0 mm 3 mps 754 mmHg 64%
    02:00 +19°C° 0 mm 3 mps 754 mmHg 67%
    03:00 +19°C° 0 mm 3 mps 754 mmHg 70%
    04:00 +18°C° 0 mm 3 mps 754 mmHg 72%
    05:00 +19°C° 0 mm 3 mps 754 mmHg 71%
    06:00 +21°C° 0 mm 3 mps 754 mmHg 70%
    07:00 +22°C° 0 mm 3 mps 754 mmHg 68%
    08:00 +24°C° 0 mm 3 mps 754 mmHg 62%
    09:00 +26°C° 0 mm 3 mps 754 mmHg 55%
    10:00 +28°C° 0 mm 4 mps 754 mmHg 49%
    11:00 +29°C° 0 mm 3 mps 753 mmHg 46%
    12:00 +30°C° 0 mm 2 mps 753 mmHg 42%
    13:00 +31°C° 0 mm 2 mps 753 mmHg 38%
    14:00 +31°C° 0 mm 1 mps 753 mmHg 38%
    15:00 +31°C° 0 mm 1 mps 753 mmHg 37%
    16:00 +31°C° 0 mm 1 mps 753 mmHg 36%
    17:00 +29°C° 0 mm 1 mps 753 mmHg 41%
    18:00 +28°C° 0 mm 2 mps 753 mmHg 45%
    19:00 +26°C° 0 mm 2 mps 752 mmHg 49%
    20:00 +26°C° 0 mm 2 mps 753 mmHg 51%
    21:00 +25°C° 0 mm 2 mps 753 mmHg 53%
    22:00 +24°C° 0 mm 2 mps 753 mmHg 55%
    23:00 +23°C° 0 mm 2 mps 754 mmHg 57%

    Tomorrow, 18 August, Saturday

    Time Temperature Precipitation Wind Pressure Humidity
    00:00 +23°C° 0 mm 2 mps 754 mmHg 59%
    01:00 +22°C° 0 mm 1 mps 754 mmHg 62%
    02:00 +22°C° 0.1 mm 1 mps 754 mmHg 65%
    03:00 +20°C° 0.1 mm 2 mps 754 mmHg 68%
    04:00 +20°C° 0.1 mm 2 mps 755 mmHg 72%
    05:00 +20°C° 0 mm 2 mps 755 mmHg 72%
    06:00 +21°C° 0 mm 2 mps 755 mmHg 73%
    07:00 +21°C° 0 mm 3 mps 755 mmHg 73%
    08:00 +24°C° 0 mm 3 mps 756 mmHg 69%
    09:00 +25°C° 0 mm 3 mps 756 mmHg 64%
    10:00 +27°C° 0 mm 3 mps 756 mmHg 60%
    11:00 +28°C° 0.1 mm 3 mps 756 mmHg 55%
    12:00 +29°C° 0.1 mm 3 mps 756 mmHg 51%
    13:00 +30°C° 0.1 mm 3 mps 756 mmHg 47%
    14:00 +30°C° 0 mm 3 mps 756 mmHg 46%
    15:00 +30°C° 0 mm 3 mps 756 mmHg 46%
    16:00 +30°C° 0 mm 3 mps 756 mmHg 46%
    17:00 +28°C° 0 mm 3 mps 756 mmHg 50%
    18:00 +27°C° 0 mm 2 mps 756 mmHg 55%
    19:00 +26°C° 0 mm 2 mps 756 mmHg 60%
    20:00 +25°C° 0 mm 2 mps 756 mmHg 62%
    21:00 +24°C° 0 mm 2 mps 757 mmHg 64%
    22:00 +23°C° 0 mm 2 mps 757 mmHg 66%
    23:00 +21°C° 0 mm 2 mps 757 mmHg 67%

    Day after tomorrow, 19 August, Sunday

    Time Temperature Precipitation Wind Pressure Humidity
    00:00 +21°C° 0 mm 2 mps 757 mmHg 68%
    01:00 +20°C° 0 mm 2 mps 757 mmHg 70%
    02:00 +21°C° 0 mm 1 mps 757 mmHg 71%
    03:00 +20°C° 0 mm 1 mps 757 mmHg 73%
    04:00 +20°C° 0 mm 1 mps 757 mmHg 75%
    05:00 +21°C° 0 mm 1 mps 757 mmHg 73%
    06:00 +20°C° 0 mm 0 mps 757 mmHg 70%
    07:00 +21°C° 0 mm 0 mps 758 mmHg 68%
    08:00 +22°C° 0 mm 0 mps 758 mmHg 63%
    09:00 +24°C° 0 mm 0 mps 758 mmHg 57%
    10:00 +27°C° 0 mm 1 mps 758 mmHg 52%
    11:00 +28°C° 0 mm 1 mps 757 mmHg 47%
    12:00 +29°C° 0 mm 1 mps 757 mmHg 43%
    13:00 +30°C° 0 mm 1 mps 757 mmHg 39%
    14:00 +30°C° 0 mm 1 mps 756 mmHg 38%
    15:00 +30°C° 0 mm 1 mps 756 mmHg 38%
    16:00 +30°C° 0 mm 1 mps 756 mmHg 38%
    17:00 +29°C° 0 mm 1 mps 756 mmHg 41%
    18:00 +27°C° 0 mm 1 mps 756 mmHg 45%
    19:00 +26°C° 0 mm 1 mps 756 mmHg 48%
    20:00 +25°C° 0 mm 1 mps 756 mmHg 51%
    21:00 +24°C° 0 mm 1 mps 756 mmHg 53%
    22:00 +23°C° 0 mm 1 mps 756 mmHg 56%
    23:00 +23°C° 0 mm 1 mps 756 mmHg 58%

    20 August, Monday

    Time Temperature Precipitation Wind Pressure Humidity
    00:00 +22°C° 0 mm 1 mps 756 mmHg 61%
    01:00 +22°C° 0 mm 1 mps 755 mmHg 63%
    02:00 +22°C° 0 mm 1 mps 755 mmHg 65%
    03:00 +21°C° 0 mm 1 mps 755 mmHg 67%
    04:00 +21°C° 0 mm 1 mps 755 mmHg 69%
    05:00 +22°C° 0 mm 1 mps 755 mmHg 66%
    06:00 +23°C° 0 mm 1 mps 755 mmHg 64%
    07:00 +24°C° 0 mm 1 mps 755 mmHg 61%
    08:00 +26°C° 0 mm 1 mps 755 mmHg 55%
    09:00 +28°C° 0 mm 1 mps 755 mmHg 48%
    10:00 +30°C° 0 mm 1 mps 755 mmHg 42%
    11:00 +31°C° 0 mm 1 mps 755 mmHg 39%
    12:00 +31°C° 0 mm 1 mps 754 mmHg 37%
    13:00 +32°C° 0 mm 1 mps 754 mmHg 34%
    14:00 +32°C° 0 mm 1 mps 754 mmHg 34%
    15:00 +32°C° 0 mm 1 mps 753 mmHg 33%
    16:00 +32°C° 0 mm 1 mps 753 mmHg 33%
    17:00 +31°C° 0 mm 1 mps 753 mmHg 37%
    18:00 +29°C° 0 mm 1 mps 753 mmHg 40%
    19:00 +28°C° 0 mm 1 mps 753 mmHg 44%
    20:00 +27°C° 0 mm 1 mps 753 mmHg 46%
    21:00 +27°C° 0 mm 1 mps 753 mmHg 48%
    22:00 +26°C° 0 mm 2 mps 753 mmHg 50%
    23:00 +25°C° 0 mm 2 mps 753 mmHg 53%

    21 August, Tuesday

    Time Temperature Precipitation Wind Pressure Humidity
    00:00 +24°C° 0 mm 2 mps 753 mmHg 55%
    01:00 +24°C° 0 mm 2 mps 753 mmHg 58%
    02:00 +23°C° 0 mm 2 mps 753 mmHg 61%
    03:00 +23°C° 0 mm 2 mps 753 mmHg 63%
    04:00 +21°C° 0 mm 2 mps 754 mmHg 65%
    05:00 +22°C° 0 mm 3 mps 754 mmHg 65%
    06:00 +24°C° 0 mm 3 mps 754 mmHg 65%
    07:00 +24°C° 0 mm 3 mps 755 mmHg 65%
    08:00 +25°C° 0 mm 4 mps 755 mmHg 61%
    09:00 +27°C° 0 mm 4 mps 755 mmHg 57%
    10:00 +28°C° 0 mm 4 mps 755 mmHg 53%
    11:00 +28°C° 0 mm 4 mps 755 mmHg 50%
    12:00 +29°C° 0 mm 4 mps 755 mmHg 48%
    13:00 +30°C° 0 mm 4 mps 755 mmHg 46%
    14:00 +29°C° 0 mm 4 mps 755 mmHg 46%
    15:00 +29°C° 0 mm 4 mps 755 mmHg 46%
    16:00 +29°C° 0 mm 4 mps 755 mmHg 46%
    17:00 +28°C° 0 mm 3 mps 755 mmHg 49%
    18:00 +26°C° 0 mm 2 mps 755 mmHg 53%
    19:00 +25°C° 0 mm 2 mps 755 mmHg 56%
    20:00 +24°C° 0 mm 2 mps 755 mmHg 58%
    21:00 +23°C° 0 mm 1 mps 755 mmHg 60%
    22:00 +22°C° 0 mm 1 mps 756 mmHg 62%
    23:00 +21°C° 0 mm 1 mps 756 mmHg 64%

    22 August, Wednesday

    Time Temperature Precipitation Wind Pressure Humidity
    00:00 +21°C° 0 mm 1 mps 756 mmHg 66%
    01:00 +20°C° 0 mm 1 mps 756 mmHg 67%
    02:00 +20°C° 0 mm 1 mps 756 mmHg 69%
    03:00 +20°C° 0 mm 1 mps 756 mmHg 70%
    04:00 +19°C° 0 mm 1 mps 755 mmHg 72%
    05:00 +20°C° 0 mm 1 mps 755 mmHg 69%
    06:00 +21°C° 0 mm 1 mps 756 mmHg 67%
    07:00 +22°C° 0 mm 1 mps 756 mmHg 65%
    08:00 +24°C° 0 mm 1 mps 756 mmHg 59%
    09:00 +26°C° 0 mm 2 mps 755 mmHg 53%
    10:00 +28°C° 0 mm 2 mps 755 mmHg 47%
    11:00 +29°C° 0 mm 2 mps 755 mmHg 44%
    12:00 +30°C° 0 mm 2 mps 755 mmHg 41%
    13:00 +30°C° 0 mm 2 mps 754 mmHg 38%
    14:00 +30°C° 0 mm 2 mps 754 mmHg 38%
    15:00 +30°C° 0 mm 2 mps 754 mmHg 38%
    16:00 +30°C° 0 mm 2 mps 754 mmHg 38%
    17:00 +29°C° 0 mm 1 mps 754 mmHg 42%
    18:00 +28°C° 0 mm 1 mps 754 mmHg 47%
    19:00 +26°C° 0 mm 1 mps 754 mmHg 51%
    20:00 +25°C° 0 mm 1 mps 754 mmHg 55%
    21:00 +24°C° 0 mm 2 mps 755 mmHg 59%
    22:00 +23°C° 0 mm 2 mps 755 mmHg 63%
    23:00 +23°C° 0 mm 2 mps 755 mmHg 67%
    Show more